User: anonymous   Login
Location: Allonne
(49.4086°N, 2.1143°E)
Time: 23:45:36
(UTC+00:00)
Language:

Okean O Rocket - Orbit

View from above orbital plane
View from above orbital plane
View from above satellite
View from above satellite

Ground track
Ground track

The orbit data is extracted from the following two-line orbital elements,

1 25861U 99039B   23150.06367205  .00000508  00000-0  75544-4 0  9994
2 25861  98.1392 187.1557 0014163 300.2649  59.7159 14.79325169286738
Epoch (UTC): 30 May 2023 01:31:41
Eccentricity: 0.0014163
inclination: 98.1392°
perigee height: 621 km
apogee height: 641 km
right ascension of ascending node: 187.1557°
argument of perigee: 300.2649°
revolutions per day: 14.79325169
mean anomaly at epoch: 59.7159°
orbit number at epoch: 28673

The dashed part of the orbit path shows where the satellite is in the earth's shadow,  

DLR